Lapse_Rate
6.5 6.5 6.5 6.5 6.5 6.5 6.5 6.5 6.5 6.5 6.5 6.5 6.5 6.5 6.5 6.7 5.9 6.9 7.1 7.0 6.9 5.2 5.7 5.8 6.1 6.6 5.9 4.7 4.5 3.5 4.1 5.7 5.7 6.3 5.1 4.6 4.1 3.8 3.1 2.7 1.8 2.4 1.6 1.5
6.5 6.5 6.5 6.5 6.5 6.5 6.5 6.5 6.5 6.5 6.5 6.5 6.5 6.6 6.4 6.2 6.8 6.9 7.0 6.8 6.9 6.4 6.0 6.2 6.3 5.6 5.5 4.7 4.9 4.9 5.3 6.6 5.3 5.3 4.4 3.8 3.5 2.7 2.2 1.5 1.5 1.3 1.7 2.1
6.5 6.5 6.5 6.5 6.5 6.5 6.5 6.5 6.5 6.5 6.5 6.5 6.5 6.5 6.3 6.6 6.9 7.0 7.2 7.4 7.2 6.4 5.8 6.2 5.8 5.4 4.7 5.5 5.9 6.0 6.3 6.1 4.9 4.6 3.6 3.2 2.9 2.5 1.7 1.3 1.3 1.5 2.1 2.8
6.5 6.5 6.5 6.5 6.5 6.5 6.5 6.5 6.5 6.5 6.5 6.5 6.4 6.1 6.9 7.1 7.1 7.2 7.4 7.3 6.5 4.6 4.9 4.9 6.0 6.2 6.6 6.8 6.7 6.8 6.6 5.2 4.6 3.6 3.2 3.3 2.6 1.9 1.4 1.5 1.9 2.4 2.9 3.0
6.5 6.5 6.5 6.5 6.5 6.5 6.5 6.5 6.5 6.5 6.5 6.5 5.9 6.0 6.3 7.1 7.2 7.4 7.5 7.1 6.6 6.6 6.1 6.9 7.1 7.2 6.9 7.2 7.5 7.4 6.1 4.6 3.7 3.5 3.2 2.6 2.0 1.2 1.6 2.4 3.1 3.0 3.0 2.9
6.5 6.5 6.5 6.5 6.5 6.4 6.5 6.5 6.5 6.5 6.5 6.5 6.1 6.5 6.5 6.7 7.1 6.2 6.4 6.9 6.9 6.6 6.9 7.2 7.6 7.9 7.0 5.9 5.1 4.2 3.9 4.4 4.6 3.5 2.5 1.7 1.3 2.3 3.1 2.9 3.0 2.9 3.0 3.1
6.5 6.5 6.5 6.5 6.5 5.9 6.5 6.5 6.4 6.2 6.6 6.5 6.5 6.2 6.3 6.5 5.7 5.5 5.8 6.0 6.5 7.2 6.7 6.2 6.2 5.9 5.9 4.9 4.3 4.2 3.4 3.1 3.3 2.5 2.2 2.7 3.0 3.1 2.8 2.6 2.6 2.6 3.1 3.6
6.5 6.5 6.5 6.3 6.4 6.5 6.4 6.1 6.3 6.1 5.6 5.8 6.4 6.1 5.4 5.8 6.3 5.9 5.4 5.5 5.2 5.2 5.6 5.2 5.4 4.6 3.4 2.3 2.4 2.9 2.9 2.4 2.1 2.8 3.8 3.6 3.2 2.7 2.4 2.3 2.7 3.2 3.2 3.1
6.5 6.5 6.3 6.3 6.4 5.4 5.8 5.9 6.0 6.1 5.9 4.6 5.0 4.9 4.9 5.2 6.4 6.7 7.3 5.9 5.3 5.1 5.5 5.5 5.3 4.7 4.3 3.5 2.7 2.3 2.1 1.9 2.1 3.4 4.3 3.4 2.6 2.0 2.0 2.8 2.9 3.1 3.0 2.7
6.5 6.5 6.5 5.9 5.1 5.8 5.7 5.4 4.7 5.6 5.8 5.7 4.2 4.9 5.0 4.4 5.4 5.9 5.5 6.3 7.4 7.8 7.5 7.1 5.8 4.0 2.2 2.5 2.3 2.0 1.9 2.8 3.5 3.9 2.5 1.8 1.6 2.3 2.5 2.3 2.4 2.5 2.3 2.0
6.5 6.5 6.2 5.9 5.7 6.0 5.3 5.4 5.2 5.5 6.6 6.6 5.1 5.6 5.9 4.8 5.6 6.7 6.5 6.2 6.4 5.7 4.0 2.7 2.2 1.2 1.1 1.4 2.1 2.4 3.1 3.3 2.4 2.0 1.8 1.7 1.8 1.7 1.9 1.5 1.9 1.7 1.9 2.3
6.5 6.2 6.0 6.1 5.6 6.1 5.4 4.9 5.7 5.7 5.8 5.7 5.0 5.2 5.5 6.1 6.2 5.0 6.0 6.3 4.5 3.2 2.5 1.7 1.4 1.2 1.7 2.4 3.0 3.0 2.5 1.6 1.4 1.6 1.9 2.0 2.2 1.4 3.6 3.6 4.0 4.1 4.4 3.8
6.3 6.5 5.4 5.3 5.0 5.2 4.1 5.3 5.5 5.4 5.5 5.6 6.3 6.2 6.2 6.0 4.6 5.0 5.5 4.2 3.0 1.9 1.4 1.2 1.5 1.5 2.2 3.0 3.2 2.0 0.9 1.5 2.2 2.4 1.9 2.0 1.9 2.1 2.2 2.8 5.3 5.5 5.3 5.8
6.7 6.8 6.3 5.7 5.2 3.9 3.5 4.4 4.8 4.8 5.5 5.7 5.8 5.7 5.7 4.9 5.2 4.7 4.4 3.3 2.0 1.2 0.9 1.5 1.6 1.9 2.6 2.6 1.5 1.4 1.6 3.5 1.0 0.9 1.2 1.3 1.7 2.0 2.1 2.5 2.4 2.7 5.2 6.8
6.1 6.3 4.6 3.5 3.2 3.0 3.2 3.5 4.3 4.2 4.7 5.3 5.5 5.7 4.7 4.4 5.0 4.1 3.4 2.4 1.7 1.1 1.1 1.6 1.7 1.6 2.6 2.2 1.5 1.1 0.7 0.4 0.3 0.3 0.8 2.0 1.9 2.2 2.2 2.4 2.7 2.8 3.3 4.8
4.8 4.8 5.6 5.0 3.5 3.4 3.4 3.9 3.2 5.1 5.2 4.9 4.6 4.0 3.4 3.3 1.4 1.7 2.8 2.8 1.8 1.3 1.5 1.5 1.3 1.3 1.8 1.6 0.6 0.0 0.7 3.3 2.0 1.2 1.7 1.8 1.8 2.1 2.3 2.4 2.6 3.0 3.4 4.2
5.7 5.8 5.4 3.9 3.8 4.1 4.1 4.2 4.4 5.6 4.8 5.1 4.5 3.7 3.5 3.8 3.5 4.1 4.0 3.2 2.0 1.3 1.4 1.1 0.2 0.8 1.5 1.1 0.6 0.1 -0.1 1.0 3.4 1.5 1.4 1.6 2.0 2.3 2.5 2.8 2.2 2.7 3.5 4.7
5.9 6.0 5.4 5.2 3.9 4.5 4.8 5.3 5.4 4.8 3.3 3.3 3.8 4.1 3.9 4.4 3.0 2.4 2.3 2.0 1.3 0.9 0.6 0.2 0.1 0.3 0.6 0.9 0.9 0.5 0.6 1.0 1.4 1.2 1.7 2.2 2.0 2.2 2.6 2.5 2.3 2.4 2.8 4.3
5.1 5.0 5.3 5.9 4.5 4.0 4.2 4.6 4.3 3.4 2.9 3.3 3.2 4.1 3.2 2.4 1.7 1.4 1.4 0.9 0.4 0.1 0.5 0.8 2.2 0.5 0.4 2.0 0.9 0.5 0.8 1.2 1.4 1.6 1.9 2.8 2.1 2.7 1.7 1.9 2.2 2.4 2.7 4.3
4.8 4.5 4.9 4.5 4.3 3.7 3.6 3.6 2.6 2.4 3.2 3.7 2.6 2.1 1.7 1.2 1.0 1.0 1.4 0.7 0.3 -0.1 0.2 0.7 -0.0 -0.3 -0.1 1.9 2.3 0.5 0.8 1.0 1.4 1.5 1.7 1.7 1.3 1.3 1.4 3.8 4.0 3.6 3.5 4.6
4.1 4.0 4.4 4.4 4.1 3.9 3.4 2.7 2.6 2.5 2.8 2.4 1.0 0.5 1.0 1.5 0.8 0.3 0.6 0.3 0.4 0.9 0.5 1.5 0.3 -0.0 0.1 1.1 0.6 0.3 0.5 0.9 1.2 0.9 -0.0 0.4 0.5 0.7 1.2 2.1 3.0 4.1 4.1 4.1
5.2 4.9 4.5 4.4 3.9 3.6 3.8 3.5 3.0 2.6 2.0 1.1 1.0 0.4 -0.1 0.3 0.9 0.7 0.3 -0.4 0.0 2.2 0.4 -0.0 0.1 1.7 1.3 2.1 -0.0 0.1 0.4 0.8 1.0 0.7 -0.6 -0.5 0.1 0.5 1.4 1.9 2.2 3.5 3.5 3.0
4.8 5.3 5.2 4.5 3.7 3.3 3.1 2.5 2.3 1.2 0.6 0.5 0.2 -0.1 0.3 0.5 0.5 0.1 -0.2 0.5 -0.0 1.7 -0.1 -0.0 2.3 3.1 2.9 -0.6 -0.0 0.3 0.6 0.0 -0.6 -0.2 -0.0 -0.6 0.2 0.6 0.9 1.5 2.0 2.3 2.0 2.2
4.3 4.1 4.2 4.0 3.6 3.1 1.7 0.9 0.8 0.4 -0.2 -0.0 -0.2 0.1 0.0 -0.2 -0.2 0.2 0.8 1.5 2.6 1.2 0.3 1.0 1.9 2.7 1.7 -0.6 -0.5 -0.1 -1.5 -1.5 -1.2 -1.5 -0.4 3.0 -0.1 0.1 0.8 1.4 1.5 1.7 1.8 2.5
1.0 1.2 1.4 1.8 1.6 0.5 0.3 -0.3 0.5 0.8 -0.0 -0.1 -0.2 -0.5 0.1 -0.1 -1.2 -0.7 0.3 1.1 2.2 0.4 0.1 2.4 2.1 2.0 -0.9 -0.8 -0.3 -0.1 -1.8 -1.7 -1.5 -1.4 -0.8 -0.8 -0.0 0.1 0.7 1.1 1.4 1.7 2.1 1.5
1.9 1.2 1.6 3.5 1.8 1.1 1.1 2.2 1.5 1.3 0.8 -0.1 -0.5 -0.5 -0.4 0.3 0.7 -0.3 0.1 0.4 0.3 1.0 -0.5 -0.7 -0.6 -0.7 -0.8 -0.6 -0.3 -0.2 -0.6 -1.4 -0.7 -0.6 0.6 -0.3 -0.1 0.0 0.4 0.9 1.0 1.2 1.8 1.8
1.4 2.7 0.9 1.2 1.7 2.4 2.0 1.9 1.7 1.3 0.7 0.0 -1.1 0.7 0.1 -0.2 0.1 -0.5 -0.2 -0.9 -0.8 -0.8 -1.0 -1.0 -0.9 -0.4 -0.6 -0.5 -0.5 -0.5 -1.9 -1.7 0.6 -0.1 -1.1 -1.5 -1.0 -0.7 0.3 0.6 0.6 1.0 1.2 1.3
Wind_Speed
8 8 9 7 10 11 13 16 13 21 18 24 22 22 23 19 1 5 6 9 9 7 13 15 16 16 15 15 15 19 17 15 16 14 15 15 14 13 11 10 8 7 7 6
6 10 12 12 14 16 17 17 16 20 26 23 21 16 8 6 3 3 3 7 8 7 8 12 15 16 15 14 14 16 16 15 17 15 15 14 13 12 11 9 7 7 6 6
3 7 5 6 13 16 14 14 17 17 21 18 17 5 7 5 3 1 2 2 5 10 11 11 11 12 12 12 14 15 16 16 17 16 15 13 12 11 9 7 6 6 6 5
4 5 3 3 6 3 8 10 12 11 18 17 15 1 5 5 2 4 4 4 8 7 9 8 11 11 12 12 13 14 14 16 15 15 14 12 10 9 7 6 6 5 5 4
2 3 7 3 4 5 4 3 12 15 15 6 6 4 5 9 7 5 6 7 9 9 8 10 10 11 12 13 13 13 14 15 14 13 13 11 10 8 6 6 5 4 3 3
3 2 3 1 5 4 5 2 6 2 5 6 8 1 1 8 8 10 11 10 10 12 11 11 10 12 13 14 13 13 13 13 11 10 11 10 8 6 5 5 5 3 3 1
4 3 7 5 6 7 1 1 2 4 3 4 2 1 6 10 11 9 10 12 12 11 11 12 12 13 13 12 11 11 13 12 11 10 10 9 8 5 5 5 4 2 1 2
5 3 8 3 4 2 2 3 4 3 4 4 5 6 7 9 10 11 11 11 12 12 12 11 12 11 10 11 10 11 12 12 11 9 7 6 7 5 5 4 3 2 4 4
6 5 8 4 3 6 3 2 3 1 3 7 6 5 9 9 10 9 8 11 10 12 12 10 11 11 13 10 11 12 12 11 9 8 7 6 6 5 3 3 3 3 3 2
2 8 12 13 7 4 4 3 4 3 1 5 7 8 9 10 10 9 9 10 9 12 12 12 10 10 10 11 11 12 12 10 7 7 6 6 4 3 3 4 4 3 4 3
5 11 15 1 4 4 5 5 4 3 1 3 10 7 9 10 10 11 11 10 8 9 10 10 10 10 9 10 12 12 9 7 6 5 5 5 4 3 4 3 3 2 1 2
4 0 2 2 3 4 6 5 5 4 5 6 7 8 11 8 8 10 9 9 11 11 11 10 11 10 9 8 10 11 9 5 5 4 4 3 3 2 2 3 2 1 2 2
2 2 4 5 5 4 6 5 6 6 6 7 6 7 9 9 9 13 6 12 11 12 11 11 11 11 8 7 8 8 7 6 4 5 4 3 3 3 2 3 5 5 4 6
4 2 3 5 3 7 7 7 9 7 6 7 8 8 9 10 12 10 9 11 12 12 11 11 12 9 6 8 9 8 7 10 5 4 4 4 3 2 2 2 2 3 6 8
5 0 4 7 7 7 6 7 8 7 7 7 7 8 10 11 9 10 10 11 12 13 12 12 11 9 8 8 8 7 5 4 5 4 4 3 3 2 2 3 3 3 3 6
4 5 4 5 6 6 7 7 8 7 8 8 8 9 10 11 12 10 10 11 12 11 11 11 10 7 7 7 7 6 5 9 6 4 3 3 3 3 3 3 4 3 4 4
1 1 1 2 6 6 6 6 7 8 10 9 10 12 12 12 12 12 10 10 11 11 10 10 9 7 7 6 7 4 4 4 6 4 3 2 2 3 3 3 2 3 4 4
3 0 2 5 7 7 7 7 9 10 11 12 12 12 13 11 11 12 12 12 13 11 8 7 7 7 7 7 6 5 4 4 3 3 2 3 2 2 2 2 2 3 3 5
4 3 2 2 7 7 7 9 9 11 12 12 13 11 11 11 11 10 11 11 11 12 5 6 13 9 7 8 7 4 4 4 3 2 2 4 3 3 2 2 2 3 3 4
3 2 3 6 9 10 9 9 12 12 11 12 13 13 12 10 10 11 9 8 5 6 8 8 8 7 6 7 9 4 4 4 3 2 1 2 2 2 2 6 5 3 4 4
5 5 4 6 7 8 9 10 11 12 10 11 13 13 12 9 9 11 11 8 5 9 8 12 7 4 4 5 5 4 4 3 2 2 1 2 3 2 2 3 3 4 4 4
4 2 4 6 7 7 8 9 10 11 11 11 12 13 13 11 9 8 6 8 6 14 7 5 4 9 6 9 4 4 3 2 2 2 2 2 2 2 3 3 3 4 4 4
4 2 3 5 6 7 9 10 10 11 12 13 12 13 11 8 7 9 8 5 5 10 5 5 11 12 10 4 4 3 2 2 1 1 2 2 2 2 3 3 4 3 4 4
4 4 3 5 7 7 7 4 8 8 8 9 9 9 12 9 5 4 9 14 16 12 7 7 9 10 8 3 3 2 1 0 1 2 2 7 2 2 3 3 4 3 4 7
3 3 4 4 5 4 6 6 9 9 10 9 9 7 7 3 4 6 8 8 16 10 6 12 11 9 4 3 2 1 0 0 2 2 2 2 3 3 3 3 4 4 5 4
0 1 1 3 5 4 5 6 7 7 8 8 6 6 6 7 8 8 7 10 8 11 5 4 3 4 3 2 1 1 1 2 2 2 4 2 3 3 3 4 4 4 5 6
2 4 3 3 3 5 4 6 8 8 7 8 9 6 7 7 9 9 10 6 6 5 4 4 3 3 2 1 0 1 1 2 5 3 2 3 3 3 4 4 4 4 6 7
Wind_Direction
274 280 271 237 214 220 232 241 237 272 276 284 296 298 300 303 29 303 316 326 339 28 332 79 97 103 105 105 116 121 125 136 128 129 121 116 114 116 112 108 100 110 106 107
290 266 259 255 248 248 248 241 252 269 277 283 287 293 324 4 309 296 349 339 352 73 35 57 87 102 99 110 119 119 125 132 121 119 113 112 112 110 105 104 108 108 113 117
268 305 320 274 243 237 242 238 242 255 265 286 290 344 341 325 336 165 61 346 17 52 69 69 80 87 101 112 116 119 127 124 116 116 112 111 112 111 112 115 113 114 114 109
269 287 236 212 154 211 264 272 229 240 255 269 281 234 11 3 90 112 110 84 59 64 68 68 88 98 109 110 118 121 124 116 114 114 112 112 110 111 109 110 118 119 109 103
244 276 281 146 178 193 194 283 219 229 260 278 308 136 43 52 63 82 86 83 86 83 87 93 99 105 107 113 112 113 110 107 108 114 117 116 112 108 106 103 104 101 103 94
337 311 270 151 199 128 92 285 190 228 305 344 334 143 33 95 92 71 75 84 97 97 88 91 103 117 110 102 97 100 103 108 110 109 111 107 105 107 94 96 107 105 98 102
248 278 287 273 118 109 315 296 146 190 313 8 43 101 96 103 92 95 98 96 95 96 98 90 85 83 91 104 110 111 101 97 99 98 101 106 106 103 106 107 108 109 106 348
202 232 257 153 100 224 199 308 241 204 161 126 132 106 106 99 114 119 119 122 121 118 123 124 121 121 117 116 127 111 107 104 100 102 107 105 102 96 91 82 76 42 63 11
191 213 253 239 276 273 293 300 300 109 137 156 161 148 138 122 116 109 118 137 138 134 141 152 147 145 130 108 109 108 104 102 97 100 103 102 102 105 87 75 66 50 32 9
166 251 252 272 279 354 7 63 50 56 267 184 162 146 140 139 134 130 124 121 124 128 124 114 110 107 113 118 116 107 101 103 108 101 89 77 73 74 85 68 47 33 26 11
258 287 277 10 58 47 87 89 73 45 308 239 142 148 133 135 143 139 139 141 138 111 106 107 110 106 105 110 113 108 110 105 99 91 100 94 80 78 77 76 103 68 349 342
227 197 39 94 67 26 80 77 75 106 68 69 105 115 132 131 122 121 130 126 108 110 113 116 113 113 111 115 120 118 108 103 108 103 95 105 92 74 54 136 161 208 289 316
274 74 96 106 96 71 98 99 87 90 93 98 99 119 123 119 119 125 101 111 118 121 120 118 116 114 117 116 108 102 109 113 115 110 100 87 69 65 34 325 281 280 282 300
308 216 249 165 159 109 106 94 97 85 77 86 101 108 111 117 122 119 117 117 118 118 116 121 113 106 100 98 98 101 108 113 95 91 87 78 73 49 25 12 349 334 343 333
327 191 107 112 104 110 119 119 112 113 109 96 92 108 119 124 116 105 116 116 119 117 116 115 107 99 99 102 103 105 100 98 99 92 83 89 67 29 14 6 352 330 337 342
24 33 115 154 145 139 136 126 125 136 125 118 113 104 95 99 104 110 116 127 128 127 122 113 106 103 102 102 99 91 95 110 106 101 87 58 39 20 9 0 343 336 332 314
193 307 238 148 168 168 165 148 143 144 128 126 122 125 123 122 122 125 117 108 109 106 108 114 114 106 106 110 113 112 104 87 103 80 72 50 11 11 1 347 332 315 304 310
243 351 239 203 173 161 153 139 140 137 129 129 127 127 127 128 124 119 114 111 103 93 92 100 103 100 94 98 100 101 103 99 85 84 48 28 22 345 326 313 292 302 310 322
49 346 309 181 137 130 131 136 131 124 130 135 132 129 119 118 120 117 117 113 114 115 116 111 115 100 96 104 97 99 105 105 90 79 48 1 0 341 337 319 305 296 300 310
23 7 81 115 121 138 137 129 128 128 134 135 122 120 118 119 124 120 115 104 112 124 126 121 106 103 100 99 102 96 93 87 80 64 15 6 325 323 310 326 323 307 302 307
26 38 81 103 111 112 125 136 136 138 131 133 130 129 129 123 113 121 114 114 115 126 120 115 113 109 111 109 94 91 89 83 63 43 4 316 321 324 312 307 305 302 301 302
9 54 102 109 114 119 130 129 125 127 125 122 125 125 122 122 115 91 75 128 134 128 114 106 113 122 122 104 98 98 94 75 37 13 351 333 322 310 295 291 297 300 299 294
7 41 98 112 127 125 114 128 133 132 136 138 138 137 136 132 131 129 126 142 125 127 110 111 128 124 112 100 102 101 87 63 14 331 316 300 275 269 277 288 282 284 294 295
9 29 72 96 96 110 117 102 115 117 119 122 124 133 137 129 90 88 125 137 134 123 121 125 128 121 110 106 97 89 91 58 327 310 297 313 300 291 283 278 289 288 286 303
41 26 62 80 97 101 111 109 109 110 107 107 105 100 102 84 117 134 127 134 133 120 119 132 127 118 102 100 103 94 61 301 263 245 272 275 284 282 279 284 287 290 289 291
9 180 142 133 133 131 135 140 135 138 132 122 105 106 104 110 120 122 124 124 125 129 115 118 120 111 114 115 96 16 317 293 309 296 298 288 286 289 293 296 290 287 293 295
10 104 92 98 128 149 150 145 144 148 142 137 122 121 119 118 125 121 120 113 112 118 119 117 116 124 120 114 3 316 295 288 308 288 267 284 281 278 286 283 282 288 294 291